Pratham (41783 NORAD) Tracking and Keplerian Element Data

This shows tracking and keplerian element data for the satellite.

Feedback or suggestion? Click here.




ElementValue
Catalog41783
NamePratham
Epoch Orbit14166
Epoch Day143.13105765
Epoch Year2019
RAAN203.2963
Inclination98.0692
Eccentricity0.0034969
Argument of Perigee107.1131
Mean Anonmoly253.3906
Mean Motion14.62991456
Decay Rate3.7E-07
L11 41783U 16059A 19143.13105765 .00000037 00000-0 16443-4 0 9992
L22 41783 98.0692 203.2963 0034969 107.1131 253.3906 14.62991456141662

Live tracking and technical data element details for Pratham (NORAD 41783). Pratham can be tracked NOW for your location showing map with azimuth and elevation plus other details from your city location.

Track the satellite on the map from your city or location and see movement details for azimuth, elevation, latitude, longitude, range, height, and movement on the map or in text.







IsCatalogInMostPopularTable: catalog: 41783, numindb: 212
Update: records affected: 1



GetName: 41783 Pratham

Hit Count: updated at: Mon, 27 May 2019 03:53:07 GMT